QPF
0.02 0.03 0.02 0.03 0.01 0.00 0.00 0.00 0.00 0.00 0.00 0.00 0.00 0.00 0.00 0.00 0.00 0.00 0.00 0.00 0.00 0.00 0.00 0.00 0.00 0.00 0.00 0.01 0.03 0.07 0.08 0.05 0.04 0.02 0.02 0.08 0.06 0.00 0.00 0.01 0.00 0.00 0.01
0.00 0.00 0.03 0.01 0.00 0.00 0.00 0.00 0.00 0.00 0.00 0.00 0.00 0.00 0.00 0.00 0.00 0.00 0.00 0.00 0.00 0.00 0.00 0.00 0.00 0.00 0.00 0.00 0.00 0.01 0.01 0.02 0.02 0.01 0.00 0.05 0.15 0.06 0.01 0.00 0.00 0.00 0.00
0.00 0.00 0.00 0.00 0.00 0.00 0.00 0.00 0.00 0.00 0.00 0.00 0.00 0.00 0.00 0.00 0.00 0.00 0.00 0.00 0.00 0.00 0.00 0.00 0.00 0.00 0.00 0.00 0.00 0.00 0.00 0.01 0.04 0.01 0.00 0.04 0.09 0.08 0.00 0.00 0.00 0.00 0.00
0.00 0.00 0.00 0.00 0.00 0.00 0.00 0.00 0.00 0.00 0.00 0.00 0.00 0.00 0.00 0.00 0.00 0.00 0.00 0.00 0.00 0.00 0.00 0.00 0.00 0.00 0.00 0.00 0.00 0.00 0.00 0.02 0.03 0.06 0.02 0.00 0.03 0.08 0.00 0.00 0.00 0.00 0.00
0.00 0.00 0.00 0.00 0.00 0.00 0.00 0.00 0.00 0.00 0.00 0.00 0.00 0.00 0.00 0.00 0.00 0.00 0.00 0.00 0.00 0.00 0.00 0.00 0.00 0.00 0.00 0.00 0.00 0.00 0.00 0.05 0.14 0.18 0.04 0.00 0.09 0.00 0.00 0.00 0.00 0.01 0.01
0.00 0.00 0.00 0.00 0.00 0.00 0.00 0.00 0.00 0.00 0.00 0.00 0.00 0.00 0.00 0.00 0.00 0.00 0.00 0.00 0.00 0.00 0.00 0.00 0.00 0.00 0.00 0.00 0.00 0.00 0.01 0.06 0.16 0.22 0.05 0.01 0.08 0.03 0.00 0.00 0.00 0.00 0.01
0.00 0.00 0.00 0.00 0.00 0.00 0.00 0.00 0.00 0.00 0.00 0.00 0.00 0.00 0.00 0.00 0.00 0.00 0.00 0.00 0.00 0.00 0.00 0.00 0.00 0.00 0.00 0.00 0.00 0.00 0.00 0.03 0.14 0.10 0.04 0.07 0.04 0.03 0.00 0.00 0.00 0.00 0.00
0.00 0.00 0.00 0.00 0.00 0.00 0.00 0.00 0.00 0.00 0.00 0.00 0.00 0.00 0.00 0.00 0.00 0.00 0.00 0.00 0.00 0.00 0.00 0.00 0.00 0.00 0.00 0.00 0.00 0.00 0.00 0.01 0.03 0.01 0.11 0.10 0.03 0.01 0.00 0.00 0.00 0.00 0.00
0.00 0.00 0.00 0.00 0.00 0.00 0.01 0.01 0.00 0.00 0.00 0.00 0.00 0.00 0.00 0.00 0.00 0.00 0.00 0.00 0.00 0.00 0.00 0.00 0.00 0.00 0.00 0.00 0.00 0.00 0.00 0.00 0.01 0.00 0.05 0.09 0.07 0.00 0.00 0.00 0.00 0.00 0.00
0.00 0.00 0.00 0.00 0.00 0.00 0.00 0.00 0.00 0.00 0.00 0.00 0.00 0.00 0.00 0.00 0.00 0.00 0.00 0.00 0.00 0.00 0.00 0.00 0.00 0.00 0.00 0.00 0.00 0.00 0.00 0.00 0.02 0.01 0.00 0.04 0.05 0.00 0.00 0.00 0.00 0.00 0.00
0.00 0.00 0.00 0.00 0.00 0.00 0.00 0.00 0.00 0.00 0.00 0.00 0.00 0.00 0.01 0.00 0.00 0.00 0.00 0.00 0.00 0.00 0.00 0.00 0.00 0.00 0.00 0.00 0.02 0.03 0.00 0.01 0.01 0.02 0.01 0.00 0.02 0.00 0.00 0.00 0.00 0.00 0.00
0.00 0.00 0.00 0.00 0.00 0.00 0.00 0.00 0.00 0.00 0.00 0.00 0.00 0.00 0.02 0.00 0.00 0.00 0.01 0.04 0.00 0.00 0.00 0.00 0.01 0.00 0.00 0.00 0.04 0.06 0.08 0.03 0.08 0.08 0.02 0.02 0.05 0.02 0.02 0.00 0.00 0.00 0.00
0.00 0.00 0.01 0.00 0.00 0.00 0.00 0.00 0.00 0.00 0.00 0.00 0.00 0.01 0.02 0.00 0.00 0.01 0.04 0.04 0.01 0.01 0.01 0.06 0.07 0.01 0.02 0.05 0.01 0.03 0.06 0.07 0.07 0.04 0.01 0.03 0.02 0.05 0.09 0.02 0.00 0.00 0.02
0.00 0.00 0.00 0.00 0.00 0.00 0.00 0.00 0.00 0.00 0.00 0.00 0.00 0.00 0.00 0.00 0.00 0.00 0.00 0.00 0.00 0.04 0.07 0.01 0.02 0.03 0.02 0.02 0.03 0.04 0.06 0.02 0.02 0.02 0.04 0.05 0.02 0.01 0.03 0.01 0.01 0.02 0.00
0.00 0.00 0.00 0.00 0.00 0.00 0.00 0.00 0.00 0.00 0.00 0.00 0.00 0.00 0.00 0.00 0.00 0.00 0.00 0.00 0.00 0.04 0.01 0.03 0.08 0.03 0.03 0.01 0.01 0.01 0.06 0.07 0.01 0.06 0.11 0.06 0.03 0.00 0.00 0.00 0.00 0.00 0.00
0.00 0.00 0.00 0.00 0.00 0.00 0.00 0.00 0.00 0.00 0.00 0.00 0.00 0.00 0.00 0.01 0.00 0.00 0.00 0.03 0.07 0.07 0.02 0.02 0.06 0.08 0.13 0.10 0.07 0.01 0.10 0.17 0.16 0.09 0.03 0.01 0.00 0.00 0.01 0.00 0.01 0.00 0.00
0.00 0.00 0.00 0.00 0.00 0.00 0.00 0.00 0.00 0.00 0.00 0.00 0.00 0.00 0.01 0.01 0.00 0.02 0.06 0.02 0.05 0.17 0.17 0.03 0.00 0.01 0.00 0.01 0.01 0.02 0.03 0.02 0.02 0.06 0.10 0.15 0.06 0.00 0.00 0.00 0.02 0.03 0.00
0.00 0.00 0.00 0.00 0.00 0.00 0.00 0.00 0.00 0.00 0.00 0.00 0.00 0.00 0.00 0.00 0.00 0.02 0.04 0.09 0.22 0.30 0.26 0.14 0.03 0.00 0.01 0.01 0.05 0.00 0.00 0.02 0.05 0.01 0.02 0.14 0.20 0.09 0.02 0.02 0.02 0.04 0.00
0.00 0.00 0.00 0.00 0.00 0.00 0.00 0.00 0.00 0.00 0.00 0.00 0.00 0.00 0.00 0.00 0.00 0.01 0.02 0.04 0.24 0.21 0.15 0.12 0.10 0.00 0.00 0.00 0.01 0.00 0.03 0.04 0.01 0.00 0.00 0.04 0.06 0.13 0.09 0.04 0.06 0.06 0.01
0.00 0.00 0.00 0.00 0.00 0.00 0.00 0.00 0.00 0.00 0.00 0.00 0.00 0.02 0.00 0.01 0.02 0.01 0.01 0.01 0.06 0.04 0.02 0.01 0.00 0.00 0.00 0.00 0.00 0.00 0.03 0.00 0.00 0.00 0.04 0.09 0.06 0.16 0.22 0.05 0.15 0.04 0.05
0.00 0.00 0.00 0.00 0.00 0.00 0.00 0.00 0.00 0.00 0.00 0.00 0.00 0.04 0.03 0.05 0.04 0.02 0.02 0.00 0.00 0.00 0.00 0.00 0.00 0.00 0.00 0.01 0.05 0.02 0.00 0.00 0.00 0.07 0.07 0.02 0.05 0.01 0.00 0.05 0.04 0.00 0.02
0.00 0.00 0.00 0.00 0.00 0.00 0.00 0.00 0.00 0.00 0.00 0.00 0.12 0.22 0.18 0.09 0.09 0.04 0.02 0.00 0.00 0.00 0.00 0.00 0.00 0.00 0.00 0.00 0.02 0.02 0.04 0.03 0.13 0.17 0.06 0.00 0.03 0.01 0.00 0.00 0.00 0.00 0.02
0.00 0.00 0.00 0.00 0.00 0.00 0.00 0.00 0.00 0.00 0.01 0.06 0.28 0.21 0.02 0.09 0.10 0.04 0.01 0.00 0.00 0.00 0.00 0.00 0.00 0.00 0.01 0.02 0.00 0.02 0.01 0.01 0.02 0.03 0.16 0.04 0.01 0.00 0.00 0.00 0.00 0.02 0.02
0.00 0.00 0.00 0.00 0.00 0.00 0.00 0.00 0.00 0.00 0.01 0.21 0.31 0.20 0.11 0.07 0.07 0.07 0.02 0.00 0.00 0.00 0.00 0.00 0.00 0.00 0.01 0.02 0.01 0.01 0.00 0.00 0.00 0.00 0.01 0.01 0.00 0.01 0.00 0.00 0.00 0.00 0.00
0.00 0.00 0.00 0.00 0.00 0.00 0.00 0.00 0.00 0.00 0.00 0.03 0.14 0.15 0.14 0.05 0.06 0.07 0.00 0.00 0.00 0.01 0.01 0.00 0.01 0.00 0.00 0.00 0.00 0.00 0.00 0.00 0.00 0.00 0.00 0.01 0.03 0.04 0.03 0.00 0.00 0.00 0.00
0.00 0.00 0.00 0.00 0.00 0.00 0.00 0.00 0.00 0.00 0.00 0.02 0.13 0.09 0.10 0.05 0.01 0.02 0.00 0.00 0.00 0.00 0.00 0.00 0.00 0.00 0.00 0.00 0.00 0.00 0.00 0.00 0.00 0.00 0.00 0.00 0.01 0.06 0.05 0.00 0.00 0.00 0.00
MSLP
1013.54 1013.72 1013.50 1013.62 1013.45 1013.63 1014.11 1014.28 1014.49 1014.77 1014.77 1015.05 1015.11 1015.42 1015.69 1015.75 1015.96 1016.16 1016.38 1016.56 1016.70 1016.89 1016.89 1017.09 1017.11 1017.17 1017.32 1017.38 1017.49 1017.85 1017.91 1018.04 1018.11 1018.19 1018.43 1018.54 1018.60 1018.67 1018.63 1018.70 1019.08 1019.30 1019.40
1012.88 1013.50 1013.70 1013.56 1013.80 1013.87 1014.12 1014.48 1014.86 1015.10 1015.24 1015.49 1015.60 1015.75 1016.05 1016.23 1016.40 1016.55 1016.73 1016.86 1016.95 1017.13 1017.27 1017.42 1017.39 1017.49 1017.53 1017.62 1017.78 1017.95 1018.10 1018.38 1018.46 1018.36 1018.35 1018.61 1018.62 1018.75 1018.65 1018.88 1019.32 1019.49 1019.55
1012.94 1013.53 1013.70 1013.65 1013.86 1014.36 1014.38 1014.78 1015.18 1015.32 1015.51 1015.88 1015.94 1016.05 1016.42 1016.53 1016.65 1016.79 1016.93 1017.02 1017.19 1017.31 1017.49 1017.71 1017.70 1017.84 1017.78 1017.90 1017.96 1018.15 1018.32 1018.67 1018.44 1018.50 1018.39 1018.43 1019.05 1018.91 1019.12 1019.31 1019.52 1019.61 1019.76
1012.90 1013.55 1013.76 1013.76 1014.04 1014.46 1014.70 1015.08 1015.39 1015.56 1015.79 1016.17 1016.22 1016.43 1016.70 1016.81 1016.95 1017.05 1017.17 1017.29 1017.40 1017.52 1017.68 1017.91 1017.93 1018.10 1018.09 1018.13 1018.19 1018.40 1018.57 1018.80 1018.65 1018.46 1018.62 1018.84 1019.16 1019.27 1019.44 1019.55 1019.80 1019.84 1020.00
1012.97 1013.61 1013.85 1013.98 1014.33 1014.60 1014.85 1015.30 1015.54 1015.78 1016.06 1016.26 1016.51 1016.75 1016.93 1017.09 1017.25 1017.42 1017.51 1017.61 1017.62 1017.69 1017.86 1018.04 1018.13 1018.24 1018.25 1018.29 1018.37 1018.38 1018.79 1019.13 1019.28 1019.30 1019.27 1019.35 1019.59 1019.53 1019.66 1019.82 1019.94 1020.01 1020.16
1013.10 1013.72 1013.93 1014.19 1014.53 1014.82 1015.10 1015.45 1015.69 1015.99 1016.21 1016.47 1016.68 1016.88 1017.04 1017.21 1017.31 1017.52 1017.63 1017.83 1017.82 1017.80 1017.94 1018.07 1018.19 1018.24 1018.28 1018.42 1018.57 1018.45 1018.64 1019.20 1019.42 1019.72 1019.88 1019.79 1019.67 1019.73 1019.88 1019.99 1020.14 1020.15 1020.33
1013.36 1013.80 1014.09 1014.37 1014.69 1015.00 1015.31 1015.59 1015.79 1016.06 1016.29 1016.54 1016.70 1016.92 1017.07 1017.18 1017.33 1017.52 1017.65 1017.79 1017.91 1017.98 1018.00 1018.12 1018.25 1018.28 1018.28 1018.50 1018.64 1018.52 1018.56 1019.07 1018.93 1019.42 1019.83 1019.99 1019.48 1019.64 1019.81 1019.88 1020.11 1020.27 1020.43
1013.01 1013.89 1014.30 1014.64 1014.93 1015.14 1015.50 1015.75 1015.93 1016.18 1016.36 1016.48 1016.60 1016.74 1016.94 1017.04 1017.12 1017.26 1017.40 1017.59 1017.81 1018.04 1018.12 1018.18 1018.29 1018.37 1018.37 1018.54 1018.78 1018.75 1018.75 1018.83 1019.12 1019.43 1019.45 1020.07 1019.62 1019.59 1019.76 1020.02 1020.14 1020.29 1020.39
1012.93 1013.64 1014.46 1014.76 1015.00 1015.27 1015.54 1015.76 1015.97 1016.20 1016.28 1016.40 1016.60 1016.80 1016.92 1017.04 1017.14 1017.26 1017.27 1017.34 1017.57 1017.83 1018.05 1018.16 1018.27 1018.31 1018.33 1018.41 1018.68 1018.76 1018.85 1018.89 1019.13 1019.37 1019.43 1019.70 1019.64 1019.69 1019.84 1019.99 1020.31 1020.23 1020.33
1012.96 1013.27 1014.14 1014.72 1014.99 1015.32 1015.57 1015.74 1015.98 1016.10 1016.17 1016.33 1016.46 1016.66 1016.79 1016.97 1017.07 1017.18 1017.29 1017.31 1017.39 1017.58 1017.81 1017.99 1018.19 1018.24 1018.25 1018.22 1018.60 1018.75 1018.86 1018.90 1018.97 1019.21 1019.12 1019.17 1019.46 1019.53 1019.65 1019.91 1019.93 1020.14 1020.33
1012.76 1013.18 1013.64 1014.27 1014.76 1015.18 1015.58 1015.76 1015.93 1015.98 1016.09 1016.27 1016.34 1016.46 1016.77 1016.98 1017.03 1017.00 1017.07 1017.22 1017.27 1017.45 1017.61 1017.76 1017.83 1017.94 1018.13 1018.16 1018.29 1018.45 1018.50 1018.62 1018.99 1019.10 1018.99 1019.05 1019.15 1019.14 1019.45 1019.87 1020.04 1020.12 1020.38
1012.32 1012.97 1013.32 1013.84 1014.44 1014.95 1015.26 1015.63 1015.88 1015.88 1016.03 1016.26 1016.33 1016.41 1016.67 1016.84 1016.78 1016.71 1016.79 1017.04 1017.15 1017.36 1017.53 1017.65 1017.62 1017.85 1017.93 1018.13 1018.11 1017.95 1018.06 1018.13 1018.96 1019.42 1019.38 1019.11 1019.08 1019.10 1019.29 1019.71 1019.94 1020.11 1020.40
1011.54 1012.34 1013.01 1013.62 1014.07 1014.58 1014.85 1015.45 1015.54 1015.64 1015.78 1015.98 1016.17 1016.29 1016.38 1016.62 1016.67 1016.72 1016.74 1016.84 1017.01 1017.13 1017.26 1017.34 1017.50 1017.66 1017.77 1018.07 1018.01 1017.72 1017.94 1017.98 1018.67 1019.06 1019.09 1018.72 1018.78 1019.07 1019.43 1019.63 1019.66 1019.71 1020.10
1011.10 1011.76 1012.65 1013.22 1013.86 1014.11 1014.55 1015.06 1015.28 1015.38 1015.52 1015.69 1015.88 1016.01 1016.22 1016.55 1016.52 1016.70 1016.58 1016.63 1016.77 1017.17 1017.24 1017.17 1017.36 1017.70 1017.58 1017.76 1017.98 1017.76 1017.79 1017.61 1018.08 1018.66 1018.71 1018.53 1018.78 1018.66 1018.88 1019.16 1019.36 1019.62 1019.48
1011.01 1011.71 1012.28 1012.91 1013.56 1013.77 1014.44 1014.71 1014.73 1014.88 1015.11 1015.20 1015.32 1015.50 1015.52 1015.80 1016.03 1015.97 1016.17 1016.34 1016.54 1016.80 1016.95 1016.96 1016.97 1017.36 1017.41 1017.40 1017.52 1017.43 1017.51 1017.59 1017.81 1018.21 1018.47 1018.54 1018.44 1018.62 1018.49 1018.70 1018.87 1019.29 1019.53
1010.68 1011.34 1011.97 1012.63 1013.30 1013.63 1014.16 1014.26 1014.38 1014.46 1014.68 1014.72 1014.98 1015.09 1015.18 1015.38 1015.64 1015.92 1016.12 1016.49 1016.74 1016.59 1016.73 1016.80 1016.97 1017.17 1017.42 1017.33 1017.47 1017.01 1016.99 1017.42 1017.88 1018.23 1018.31 1018.14 1018.02 1018.34 1018.49 1018.75 1018.70 1018.95 1019.32
1010.29 1011.20 1011.97 1012.57 1013.10 1013.57 1013.88 1013.92 1014.07 1014.21 1014.13 1014.70 1014.91 1015.02 1015.23 1015.43 1015.72 1016.07 1016.42 1016.28 1016.21 1016.47 1016.72 1016.93 1017.03 1016.88 1017.14 1017.03 1017.10 1016.90 1016.94 1016.93 1017.25 1017.72 1017.64 1017.76 1017.84 1018.02 1018.16 1018.42 1018.47 1018.66 1018.96
1010.23 1011.11 1011.91 1012.48 1013.05 1013.55 1013.98 1013.95 1014.07 1014.32 1014.51 1014.44 1014.58 1014.90 1015.12 1015.22 1015.42 1015.81 1016.04 1016.17 1016.05 1016.21 1016.44 1016.61 1016.83 1016.94 1016.95 1016.97 1016.85 1016.80 1016.79 1016.64 1016.77 1016.80 1017.12 1017.37 1017.49 1017.70 1017.89 1018.01 1018.18 1018.45 1018.70
1009.89 1010.73 1011.53 1012.19 1012.85 1013.44 1013.90 1013.95 1014.21 1014.29 1014.19 1014.11 1014.56 1014.80 1014.99 1015.06 1015.14 1015.32 1015.47 1015.51 1015.54 1015.78 1016.02 1016.30 1016.54 1016.84 1017.00 1016.90 1016.80 1016.66 1016.58 1016.62 1016.60 1016.40 1016.42 1016.71 1016.98 1017.31 1017.67 1017.62 1017.77 1018.16 1018.36
1009.59 1010.27 1011.00 1011.85 1012.62 1013.12 1013.67 1014.08 1014.22 1014.21 1014.18 1014.16 1014.71 1014.86 1015.01 1015.02 1015.14 1015.31 1015.32 1015.38 1015.46 1015.89 1016.18 1016.42 1016.67 1016.82 1016.92 1016.87 1016.66 1016.57 1016.48 1016.19 1016.12 1016.46 1016.59 1016.51 1016.79 1016.97 1017.29 1017.38 1017.40 1017.65 1017.93
1009.43 1010.22 1010.85 1011.60 1012.45 1013.00 1013.66 1014.18 1014.39 1014.43 1014.30 1014.35 1014.80 1015.39 1015.62 1015.47 1014.85 1015.07 1015.32 1015.27 1015.48 1015.98 1016.10 1016.45 1016.71 1016.90 1016.78 1016.61 1016.62 1016.36 1016.25 1016.05 1016.07 1016.10 1015.95 1015.86 1016.15 1016.23 1016.52 1016.86 1017.10 1017.40 1017.67
1009.07 1009.77 1010.68 1011.34 1012.11 1012.72 1013.26 1013.66 1013.87 1014.03 1014.07 1014.96 1015.23 1014.76 1014.47 1015.56 1015.28 1014.90 1015.24 1015.56 1015.59 1015.94 1016.11 1016.38 1016.66 1016.81 1016.73 1016.46 1016.52 1016.57 1016.74 1016.61 1016.33 1016.18 1016.10 1016.12 1016.40 1016.26 1016.30 1016.40 1016.67 1017.08 1017.46
1008.91 1009.53 1010.22 1011.04 1011.66 1012.25 1012.78 1013.31 1013.57 1013.82 1013.79 1015.08 1015.61 1014.90 1013.80 1014.75 1015.47 1015.38 1015.30 1015.50 1015.66 1015.92 1016.12 1016.30 1016.48 1016.59 1016.73 1016.55 1016.25 1016.55 1016.82 1016.98 1016.70 1016.57 1016.72 1016.62 1016.53 1016.45 1016.52 1016.74 1016.93 1017.21 1017.46
1008.26 1008.99 1009.82 1010.56 1011.17 1011.75 1012.25 1012.84 1013.25 1013.55 1014.20 1016.25 1015.84 1014.58 1014.50 1014.81 1015.18 1015.68 1015.34 1015.38 1015.62 1015.82 1015.97 1016.03 1016.21 1016.40 1016.47 1016.64 1016.36 1016.16 1016.40 1016.67 1016.98 1017.04 1016.66 1016.69 1016.62 1016.75 1016.95 1017.08 1017.39 1017.39 1017.68
1007.71 1008.57 1009.26 1010.08 1010.79 1011.24 1011.87 1012.35 1012.85 1013.23 1013.76 1014.82 1015.47 1015.69 1014.99 1015.22 1015.25 1015.46 1015.15 1015.13 1015.37 1015.37 1015.78 1015.90 1016.26 1016.45 1016.52 1016.78 1016.82 1016.59 1016.58 1016.69 1016.91 1017.25 1017.39 1017.11 1017.34 1017.26 1017.52 1017.82 1017.89 1017.82 1017.85
1007.34 1008.14 1008.94 1009.65 1010.20 1010.76 1011.36 1011.93 1012.44 1012.91 1013.08 1013.88 1014.77 1015.16 1015.62 1014.98 1014.98 1014.93 1014.96 1014.88 1014.80 1015.04 1015.49 1015.68 1015.97 1016.16 1016.45 1016.84 1016.95 1017.03 1017.16 1017.34 1017.53 1017.52 1017.89 1017.72 1017.66 1018.29 1018.22 1018.24 1018.35 1018.26 1018.41
Thickness
5771 5772 5777 5778 5779 5776 5774 5776 5775 5772 5773 5773 5775 5772 5769 5769 5769 5767 5766 5765 5763 5761 5760 5759 5758 5757 5755 5757 5756 5753 5751 5749 5747 5746 5743 5742 5741 5739 5738 5736 5730 5728 5727
5779 5774 5775 5778 5779 5778 5777 5776 5773 5772 5773 5771 5772 5771 5768 5767 5767 5767 5765 5764 5764 5761 5759 5758 5757 5755 5754 5755 5757 5756 5753 5750 5748 5746 5747 5744 5742 5741 5740 5736 5730 5729 5728
5780 5775 5775 5779 5779 5777 5777 5775 5772 5772 5773 5770 5771 5771 5767 5767 5767 5766 5765 5765 5764 5762 5760 5757 5756 5754 5753 5755 5756 5754 5751 5749 5748 5746 5746 5746 5742 5741 5737 5732 5731 5730 5729
5780 5776 5777 5779 5777 5776 5777 5774 5772 5773 5773 5770 5771 5769 5767 5766 5765 5765 5765 5765 5764 5763 5761 5758 5757 5753 5754 5754 5755 5753 5752 5749 5749 5750 5749 5746 5741 5738 5735 5732 5730 5729 5728
5779 5777 5777 5778 5777 5776 5775 5772 5772 5772 5772 5771 5770 5768 5766 5764 5764 5762 5762 5763 5763 5764 5762 5760 5758 5755 5754 5753 5754 5756 5754 5748 5745 5745 5745 5743 5739 5735 5732 5730 5729 5729 5728
5780 5777 5777 5778 5776 5775 5774 5773 5773 5772 5771 5770 5769 5768 5767 5766 5766 5764 5763 5762 5763 5764 5763 5761 5759 5757 5757 5754 5752 5756 5754 5749 5746 5745 5742 5741 5739 5733 5730 5729 5728 5729 5728
5779 5777 5777 5777 5776 5775 5774 5773 5773 5772 5772 5771 5771 5770 5769 5769 5768 5767 5766 5765 5764 5764 5764 5762 5760 5760 5760 5756 5753 5758 5756 5751 5751 5747 5743 5741 5740 5733 5732 5730 5729 5729 5728
5783 5777 5776 5775 5775 5775 5774 5773 5773 5772 5772 5774 5774 5774 5773 5773 5773 5772 5771 5770 5767 5764 5764 5762 5761 5761 5761 5758 5754 5755 5754 5753 5751 5749 5745 5739 5739 5736 5734 5731 5729 5730 5729
5784 5781 5776 5776 5776 5775 5775 5774 5773 5773 5775 5776 5776 5775 5775 5775 5775 5774 5774 5774 5771 5768 5764 5763 5763 5763 5763 5761 5758 5756 5755 5754 5752 5748 5745 5743 5740 5737 5733 5732 5728 5731 5732
5787 5786 5780 5778 5778 5776 5775 5775 5774 5775 5777 5778 5779 5777 5777 5776 5777 5776 5776 5776 5775 5771 5767 5765 5764 5764 5765 5765 5760 5758 5756 5755 5754 5752 5752 5749 5744 5741 5737 5733 5734 5733 5731
5789 5788 5786 5783 5781 5779 5777 5776 5776 5778 5779 5779 5780 5780 5779 5779 5780 5779 5779 5778 5777 5773 5770 5768 5768 5766 5764 5765 5764 5761 5760 5758 5756 5754 5754 5751 5749 5747 5744 5736 5733 5734 5731
5790 5790 5792 5788 5784 5782 5780 5779 5779 5781 5781 5780 5780 5782 5781 5781 5782 5782 5781 5778 5776 5773 5771 5769 5770 5768 5766 5765 5766 5765 5765 5763 5755 5746 5751 5752 5750 5749 5747 5740 5736 5736 5733
5800 5797 5796 5792 5789 5786 5786 5782 5783 5784 5784 5783 5783 5783 5784 5781 5782 5782 5782 5781 5777 5774 5773 5772 5772 5770 5768 5766 5766 5768 5765 5766 5757 5746 5751 5754 5751 5749 5746 5742 5741 5741 5737
5806 5805 5801 5798 5793 5792 5790 5787 5786 5787 5787 5787 5787 5787 5785 5782 5783 5783 5784 5782 5780 5775 5773 5773 5773 5770 5770 5767 5766 5768 5767 5769 5765 5758 5756 5756 5753 5753 5751 5747 5744 5742 5742
5807 5804 5804 5803 5797 5795 5793 5791 5790 5791 5792 5792 5793 5791 5791 5789 5788 5787 5784 5781 5778 5776 5774 5774 5775 5771 5771 5770 5769 5768 5768 5769 5766 5763 5758 5756 5755 5753 5754 5751 5749 5745 5742
5811 5808 5807 5804 5801 5799 5798 5797 5798 5798 5796 5796 5794 5794 5793 5791 5788 5785 5781 5777 5775 5774 5774 5774 5772 5770 5769 5770 5768 5771 5770 5768 5764 5760 5759 5758 5758 5754 5752 5749 5748 5747 5742
5817 5813 5808 5806 5805 5801 5800 5800 5800 5799 5799 5795 5793 5793 5791 5789 5785 5781 5778 5779 5778 5774 5771 5768 5769 5771 5770 5770 5772 5771 5771 5770 5767 5764 5764 5763 5758 5753 5752 5749 5749 5748 5744
5822 5815 5811 5810 5806 5802 5800 5800 5799 5798 5796 5797 5795 5793 5791 5790 5787 5784 5782 5781 5779 5773 5769 5769 5770 5770 5769 5769 5772 5772 5772 5772 5770 5770 5768 5765 5762 5757 5755 5754 5751 5748 5746
5826 5821 5815 5812 5807 5804 5802 5801 5799 5798 5800 5801 5796 5794 5793 5792 5791 5790 5788 5785 5784 5778 5773 5770 5768 5769 5769 5770 5771 5773 5772 5770 5770 5770 5771 5770 5767 5762 5759 5759 5756 5751 5749
5828 5824 5820 5816 5811 5808 5805 5802 5800 5801 5802 5800 5796 5796 5795 5795 5792 5790 5790 5788 5785 5780 5775 5772 5771 5771 5771 5771 5772 5771 5771 5773 5773 5771 5769 5769 5768 5766 5762 5761 5760 5756 5753
5830 5824 5822 5817 5812 5809 5803 5798 5797 5796 5799 5801 5796 5792 5790 5791 5798 5793 5790 5791 5787 5781 5779 5775 5773 5772 5773 5776 5772 5773 5774 5777 5776 5774 5772 5775 5772 5772 5769 5764 5762 5759 5755
5831 5828 5823 5820 5815 5812 5807 5804 5804 5801 5801 5797 5794 5798 5798 5791 5794 5796 5792 5790 5789 5783 5781 5777 5775 5773 5774 5777 5771 5770 5761 5767 5773 5775 5776 5776 5771 5771 5769 5768 5765 5760 5755
5831 5829 5827 5823 5819 5815 5812 5808 5806 5803 5804 5793 5791 5797 5805 5795 5789 5790 5791 5790 5789 5785 5780 5779 5777 5776 5771 5775 5778 5769 5758 5755 5765 5770 5768 5770 5770 5770 5768 5764 5761 5759 5754
5837 5837 5831 5827 5823 5819 5816 5810 5806 5799 5794 5779 5771 5799 5804 5797 5791 5785 5789 5791 5789 5787 5783 5783 5781 5779 5778 5773 5777 5779 5776 5770 5758 5756 5769 5770 5769 5766 5765 5761 5756 5756 5752
5844 5838 5835 5830 5825 5822 5818 5814 5810 5804 5802 5794 5790 5787 5793 5790 5790 5785 5789 5791 5790 5791 5785 5784 5780 5778 5778 5774 5772 5774 5774 5772 5769 5759 5753 5759 5760 5760 5756 5752 5750 5750 5748
5848 5842 5838 5831 5827 5825 5821 5816 5813 5808 5807 5801 5791 5786 5786 5793 5791 5789 5790 5792 5793 5792 5787 5785 5783 5781 5778 5774 5772 5769 5766 5761 5756 5753 5748 5751 5750 5745 5748 5747 5745 5743 5740